Torna al catalogo

STARLINK-11741

AttivoComunicazioniVLEO
NORAD 64064·PAYLOAD·🇺🇸 United States

Lanciato May 21, 2025 da Cape Canaveral Space Force Station

Loading…

Prossimi Passaggi (prossime 24 ore)

TLE

AggiornatoSource: CelesTrak SupGP

Epoca: Sep 15, 2026, 02:15 UTC

1 64064C 25107A   26258.09423611 -.00072756  00000+0 -56488-3 0  2584
2 64064  43.0013  37.1007 0001685 266.9919 339.8911 15.70883184    13

Traccia STARLINK-11741 in tempo reale con AllMySat

Download on the App Store